Location: Altdorf
(48.5224°N, 7.5278°E)
Time: 13:13:41
(UTC+00:00)

Daily predictions for brighter satellites

Satellite Brightness Start Highest point End
(mag) Time Altitude Azimuth Time Altitude Azimuth Time Altitude Azimuth
Cosmos 2074 Rocket 4.3 20:06:18 10° N 20:12:29 55° ENE 20:18:34 10° SSE
Ariane Rocket 3.1 20:08:23 10° SSE 20:13:29 88° WSW 20:18:37 10° NNW
Cosmos 1544 Rocket 3.8 20:14:59 10° NNW 20:19:18 71° W 20:23:38 10° S
Lacrosse 5 rocket 3.8 20:19:37 10° WSW 20:20:50 11° WSW 20:22:04 10° SW
Cosmos 1656 3.8 20:16:29 10° NNW 20:21:58 76° WSW 20:27:29 10° SSE
GEOS 3 Rocket 4.4 20:18:29 10° SSE 20:23:22 45° WSW 20:28:17 10° NW
ATLAS 2AS CENTAUR R/B 3.6 20:21:50 10° NW 20:28:24 43° WSW 20:34:34 10° S
USA 234 4.4 20:23:17 10° ENE 20:29:26 44° N 20:35:34 10° WNW
MetOp-B 4.3 20:25:27 10° S 20:30:48 75° WSW 20:36:12 10° NNW
Cosmos 1850 Rocket 4.0 20:25:38 10° NNW 20:30:52 89° WSW 20:36:02 10° SSE
SL-16 R/B 4.4 20:29:02 10° N 20:32:40 17° NE 20:36:16 10° ENE
Cosmos 1980 Rocket 3.1 20:28:16 10° NNW 20:33:39 40° NE 20:38:59 10° ESE
Cosmos 1697 Rocket 2.8 20:28:27 10° NNW 20:34:06 70° ENE 20:39:32 11° SE
USA 32 4.4 20:30:16 10° SSW 20:35:28 70° W 20:40:42 10° N
Cosmos 2344 4.4 20:27:32 10° NW 20:36:09 71° NE 20:48:05 10° SE
SL-8 R/B 4.0 20:32:10 10° W 20:36:51 54° SSW 20:41:22 11° SE
Cosmos 2369 4.3 20:31:38 10° NNW 20:37:11 47° NE 20:42:35 11° SE
Cosmos 1331 Rocket 4.3 20:33:12 10° S 20:38:18 51° ESE 20:43:27 10° NNE
COSMOS 2406 3.8 20:38:22 10° S 20:43:39 39° ESE 20:48:56 10° NE
Spot 2 Rocket 3.6 20:38:54 10° SSE 20:43:59 76° ENE 20:49:06 10° NNW
Cosmos 2154 Rocket 4.1 20:37:55 10° N 20:44:06 67° ENE 20:50:11 10° SSE
X-37B 1.2 20:42:37 10° WSW 20:45:10 31° SSW 20:47:01 15° SE
CZ-2C R/B 4.2 20:43:24 10° NNE 20:47:45 42° E 20:51:58 10° S
SPOT 5 2.6 20:49:45 11° SSE 20:53:58 90° SSW 20:58:19 10° NNW
Cosmos 1703 3.3 20:52:34 10° SSW 20:56:25 78° WNW 21:00:18 10° N
Cosmos 2084 Rocket 3.3 20:52:54 10° NW 20:56:48 80° NE 21:00:03 15° SE
RESURS DK-1 3.2 20:53:42 10° NW 20:57:39 44° WSW 21:01:19 11° S
Cosmos 1452 Rocket 3.9 20:54:14 10° SSW 20:59:27 68° WNW 21:04:43 10° NNE
Cosmos 1833 Rocket 2.6 20:54:03 10° SSW 20:59:39 81° ESE 21:05:19 10° NNE
Terra 1.9 20:56:28 13° SSE 21:00:39 74° ENE 21:05:25 10° N
CZ-4B R/B 3.6 20:59:10 10° NNW 21:01:32 23° WNW 21:03:52 10° WSW
ASTEX 1 4.5 20:58:43 10° NNE 21:03:06 29° E 21:06:19 16° SE
Helios 1A Rocket 3.0 21:01:06 13° S 21:04:46 75° WSW 21:08:54 10° NNW
Cosmos 1110 Rocket 4.0 21:00:08 10° SSW 21:05:24 90° NW 21:10:46 10° NNE
FALCON 9 DEB 3.9 21:03:02 10° WNW 21:06:13 47° NNE 21:09:23 10° E
ERS-1 Rocket 3.1 21:02:33 12° S 21:07:13 80° WSW 21:12:17 10° NNW
Cosmos 1892 Rocket 4.1 21:04:14 15° SSE 21:07:29 42° E 21:11:37 10° NNE
Resurs 01 Rocket 4.0 21:04:54 10° SW 21:08:04 19° W 21:11:17 10° NW
Cosmos 2322 Rocket 4.2 21:04:19 10° N 21:08:31 21° NE 21:12:42 10° E
Cosmos 1302 Rocket 4.3 21:03:52 10° S 21:08:45 46° ESE 21:13:42 10° NNE
Cosmos 2228 3.4 21:07:11 10° NNW 21:11:22 60° W 21:15:15 12° S
Cosmos 2058 Rocket 3.7 21:08:07 10° N 21:12:21 43° ENE 21:15:19 18° SE
Cosmos 1825 3.9 21:15:03 15° ESE 21:16:25 18° E 21:19:00 10° NE
Lacrosse 5 4.2 21:16:07 10° W 21:17:57 12° WSW 21:19:47 10° SW
Cosmos 1408 3.2 21:16:14 21° SE 21:17:57 35° E 21:21:08 10° NNE
Cosmos 2278 4.2 21:14:21 10° NNW 21:19:58 52° NE 21:24:23 16° SE
Cosmos 968 Rocket 3.5 21:17:35 10° NNW 21:22:50 81° ENE 21:26:36 19° SSE
Cosmos 1328 3.8 21:22:05 13° S 21:25:41 86° W 21:29:42 10° N
USA 276 2.3 21:25:07 10° WNW 21:28:09 66° N 21:31:01 11° E
SJ 16-02 3.5 21:28:51 10° N 21:31:56 18° NE 21:35:01 10° E
Cosmos 1867 3.6 21:27:12 10° NW 21:32:43 89° SW 21:36:30 21° SE
Cosmos 2082 Rocket 2.2 21:27:49 10° SSW 21:33:28 65° ESE 21:39:07 10° NNE
USA 267 3.7 21:30:35 10° ENE 21:36:39 38° SE 21:42:39 10° SSW
ARIANE 5 R/B 2.9 21:35:43 19° S 21:38:52 65° WSW 21:43:17 10° NNW
Cosmos 1606 Rocket 4.3 21:35:54 10° NNW 21:40:03 47° W 21:43:24 15° SSW
GP-B 3.2 21:36:36 10° N 21:41:01 60° E 21:43:34 24° SSE
Cosmos 2341 Rocket 4.0 21:36:07 10° N 21:42:29 85° E 21:47:01 20° S
Cosmos 2360 Rocket 4.0 21:40:06 10° N 21:44:37 24° NE 21:49:08 10° E
SAR-Lupe-4 3.8 21:41:43 10° NNE 21:45:14 52° E 21:46:46 29° SSE
Okean 1-7 Rocket 3.7 21:58:40 27° SSE 22:00:55 60° E 22:05:21 10° NNE
SAR-Lupe-1 4.0 21:58:13 10° NNE 22:01:49 87° WNW 22:03:39 27° SSW
Cosmos 1892 2.8 22:02:06 25° SSW 22:04:13 73° W 22:08:00 10° N
Cosmos 2181 Rocket 3.9 22:07:21 21° S 22:11:41 86° E 22:17:59 10° N
USA 234 3.5 22:05:26 10° ESE 22:11:58 70° NNE 22:18:29 10° NW
Cosmos 1633 3.2 22:12:09 32° ESE 22:12:50 36° E 22:16:03 10° NNE
Cosmos 1697 Rocket 4.5 22:13:25 10° NW 22:17:29 21° W 22:21:16 11° SW
Cosmos 1980 Rocket 3.1 22:12:24 10° NW 22:17:40 39° WSW 22:20:52 21° SSW
Cosmos 1821 Rocket 4.3 22:11:39 10° N 22:17:48 57° ENE 22:21:23 25° SE
SL-16 R/B 2.4 22:12:15 10° NNW 22:17:55 66° ENE 22:21:23 24° SE
Cosmos 1486 Rocket 4.0 22:13:07 10° NNW 22:18:22 78° WSW 22:21:05 29° SSE
Cosmos 1992 Rocket 3.9 22:15:18 22° SSW 22:18:47 81° ESE 22:24:03 10° NNE
Cosmos 1812 Rocket 3.8 22:15:47 10° N 22:20:14 61° ENE 22:22:08 32° SE
Cosmos 1932 4.4 22:14:32 10° SW 22:20:45 87° SE 22:27:09 10° NE
SL-4 R/B 4.1 22:23:23 11° E 22:23:23 11° E 22:23:35 10° E
Cosmos 2219 Rocket 4.3 22:17:22 10° N 22:21:40 21° NE 22:25:58 10° E
COSMOS 2406 4.4 22:22:29 10° WSW 22:27:55 42° NW 22:33:23 10° NNE
Cosmos-2242 3.2 22:25:22 10° N 22:29:35 59° ENE 22:31:12 34° SE
ATLAS 5 CENTAUR R/B 1.1 22:29:23 24° SW 22:31:35 89° SE 22:35:49 10° NE
Cosmos 1869 3.7 22:29:53 10° NNW 22:33:41 53° W 22:35:09 33° SSW
Cosmos 1602 Rocket 3.5 22:32:12 36° S 22:33:54 75° E 22:38:13 10° NNE
Cosmos 807 4.0 22:30:57 10° NNW 22:34:01 75° W 22:34:24 61° SSW
In-Cosmos 22 Rocket 4.5 22:30:23 19° SSW 22:34:22 63° WNW 22:39:46 10° N
ERS-2 3.7 22:34:38 10° NE 22:37:23 20° E 22:37:40 20° ESE
Terra 4.1 22:36:10 10° SW 22:38:56 15° W 22:41:43 10° NW
Nadezhda 3 Rocket 4.2 22:36:22 28° SSE 22:39:33 58° E 22:45:36 10° NNE
ALOS 2 2.7 22:39:48 35° SSE 22:41:35 70° ENE 22:45:59 10° N
FALCON 9 DEB 3.4 22:39:21 10° WNW 22:42:17 44° SW 22:42:17 44° SW
Cosmos 1354 Rocket 4.0 22:41:17 10° NNW 22:46:37 89° WSW 22:49:06 33° SSE
BREEZE-M DEB (TANK) 3.8 22:45:20 10° W 22:48:40 87° S 23:01:57 10° ESE
ADEOS Rocket 3.5 22:45:43 26° SSE 22:50:19 84° ENE 22:58:07 10° NNW
Cosmos 1825 3.3 22:49:40 22° SW 22:51:29 37° WNW 22:55:00 10° N
Cosmos 2322 Rocket 2.2 22:47:42 10° NNW 22:53:25 86° ENE 22:56:23 30° SSE
Cosmos 1503 Rocket 4.2 22:51:07 10° NNW 22:56:22 62° WSW 22:58:35 33° S
Cosmos 1626 Rocket 4.4 22:54:43 22° SW 22:57:05 43° WNW 23:01:16 10° N
Cosmos 1953 Rocket 4.3 22:58:43 32° SE 23:00:03 40° E 23:04:12 10° NNE
USA 276 3.2 23:00:56 10° W 23:02:49 31° W 23:02:49 31° W
Cosmos 1777 Rocket 4.0 22:59:07 10° NNW 23:04:27 87° ENE 23:06:53 33° SSE
Cosmos 2333 Rocket 2.9 23:03:02 10° NNW 23:08:38 50° NE 23:12:52 17° SE
Cosmos 1825 Rocket 3.5 23:08:18 42° S 23:09:41 77° E 23:14:02 10° NNE
SJ 16-02 1.4 23:06:33 10° NNW 23:10:57 65° WSW 23:12:19 41° S
CENTAUR R/B 4.2 23:09:34 13° ESE 23:11:12 15° ESE 23:14:32 10° ENE
Gbstr 26 Del rocket 3.4 23:11:09 41° SSE 23:11:43 43° SE 23:16:32 10° ENE
Cosmos 1340 Rocket 3.0 23:13:04 44° SE 23:13:55 54° E 23:17:49 10° NNE
Cosmos 2082 Rocket 4.1 23:13:11 10° WSW 23:18:01 28° NW 23:22:52 10° NNE
H-2A R/B 3.7 23:15:05 10° N 23:19:15 63° WNW 23:20:55 34° SW
USA 267 3.3 23:13:27 10° NE 23:20:01 80° NNW 23:26:34 10° WSW
Celestis-02/Orion 38 4.5 23:19:53 31° SSE 23:22:27 87° ENE 23:27:34 10° NNW
Cosmos 2221 2.8 23:22:23 10° N 23:26:43 60° ENE 23:28:17 36° SE
Cosmos 1606 3.4 23:23:43 10° NNW 23:27:24 43° W 23:28:16 36° SW
Cosmos 2058 2.9 23:26:08 42° SSW 23:27:29 74° W 23:31:41 10° N
Cosmos 2360 Rocket 2.1 23:23:36 10° NNW 23:29:18 79° WSW 23:32:00 32° SSE
Cosmos 1842 Rocket 4.2 23:25:01 10° N 23:29:23 49° ENE 23:31:14 30° SE
Cosmos 1934 Rocket 3.9 23:23:54 10° N 23:30:01 86° W 23:33:06 32° S
Cosmos 2333 4.4 23:28:01 10° NNW 23:33:50 74° ENE 23:37:21 25° SE
Resurs 1-4 Rocket 4.4 23:33:01 10° ENE 23:34:49 12° E 23:36:36 10° ESE
Cosmos 1782 4.2 23:31:56 10° N 23:35:31 31° ENE 23:37:13 22° ESE
Cosmos 1833 4.2 23:39:57 34° S 23:42:26 71° ESE 23:48:02 10° NNE
NOSS 8 (A) 4.1 23:42:23 73° S 23:42:38 80° SE 23:45:36 10° NE
Cosmos 44 3.2 23:41:21 41° S 23:42:43 62° ESE 23:47:08 10° NE
CZ-2D R/B 4.3 23:41:11 10° ENE 23:43:32 13° E 23:45:54 10° ESE
Cosmos 1339 Rocket 4.5 23:50:04 31° SSW 23:53:17 81° W 23:59:27 10° N
Cosmos 2237 Rocket 4.2 23:48:54 10° NNW 23:53:40 26° NE 23:58:23 10° ESE
